Hourly Weather Roundup
Issued by NWS Central Illinois

Home | Current Version | Previous Version | Text Only | Print | Product List | Glossary On
Versions: 1 2 3 4 5 6 7 8 9 10 11 12 13 14 15 16 17 18 19 20 21 22 23 24 25 26 27 28 29 30 31 32 33 34 35 36 37 38 39 40 41 42 43 44 45 46 47 48 49 50
000
NZUS43 KILX 230510
HWRILX

AREA WEATHER ROUNDUP
NATIONAL WEATHER SERVICE, LINCOLN IL
1200 AM CDT SAT JUL 23 2016


CITY           SKY/WX    TMP DP  RH WIND       PRES   REMARKS
BLOOMINGTON    PTCLDY    77  73  87 SW5       30.03F
CHAMPAIGN      PTCLDY    74  72  93 SW5       30.03F
DANVILLE       PTCLDY    73  73  99 CALM      30.00S
DECATUR        PTCLDY    78  73  84 SW5       30.03S HX  81
EFFINGHAM      PTCLDY    73  73 100 CALM      30.04S
FLORA          CLEAR     75  74  96 CALM      30.02S FOG
GALESBURG      CLOUDY    77  75  92 S5        30.00S
JACKSONVILLE   PTCLDY    78  75  92 S5        30.01S HX  80
LACON          MOCLDY    78  75  91 CALM      29.99S HX  80
LAWRENCEVILLE  CLEAR     76  75  97 CALM      30.02S FOG
LITCHFIELD     PTCLDY    74  72  92 CALM      30.03S
$$


CITY           SKY/WX    TMP DP  RH WIND       PRES   REMARKS
LINCOLN        MOCLDY    78  74  90 CALM      30.00F HX  80
MACOMB         CLOUDY    76  75  96 SW6       30.03S
MATTOON        PTCLDY    75  71  87 CALM      30.02F
MT CARMEL AP   CLEAR     74  73  96 CALM      30.02S FOG
OLNEY-NOBLE AP PTCLDY    73  73 100 CALM      30.02S FOG
PARIS          CLEAR     72  72 100 CALM      30.03S FOG
PEORIA         CLOUDY    79  77  94 S6        30.01R HX  83
PONTIAC        PTCLDY    78  77  98 CALM      30.02S
RANTOUL        NOT AVBL
ROBINSON       FOG       72  72 100 CALM      30.03S VSB 3/4
SPRINGFIELD    PTCLDY    79  75  87 CALM      30.02S HX  83
TAYLORVILLE    PTCLDY    74  74  98 CALM      30.03R
$$

...REGIONAL REPORTS...


CITY           SKY/WX    TMP DP  RH WIND       PRES   REMARKS
CHICAGO O`HARE MOCLDY    82  76  81 CALM      29.98S HX  89
KANKAKEE       NOT AVBL
MOLINE         PTCLDY    80  75  84 CALM      29.99R HX  85
MOUNT STERLING CLOUDY    76  75  97 CALM      30.00F
MOUNT VERNON   CLEAR     73  70  88 CALM      30.03S
PITTSFIELD     PTCLDY    77  76  97 S3        30.01F
QUINCY         PTCLDY    78  75  90 S5        30.00F HX  81
ROCKFORD       CLEAR     79  75  87 CALM      30.01R HX  83
$$


CITY           SKY/WX    TMP DP  RH WIND       PRES   REMARKS
BURLINGTON     CLOUDY    78  77  96 S6        29.99S HX  81
CEDAR RAPIDS   CLEAR     77  77 100 SE3       29.99R
DES MOINES     PTCLDY    83  77  82 SE6       29.95S HX  92
KIRKSVILLE     CLEAR     77  74  90 S7        30.00S
OTTUMWA        CLEAR     78  74  87 S7        29.97S HX  81
ST LOUIS       CLOUDY    82  73  74 S3        30.02F HX  87
$$


CITY           SKY/WX    TMP DP  RH WIND       PRES   REMARKS
TERRE HAUTE    CLEAR     74  71  91 N3        30.02F
EVANSVILLE     CLEAR     77  74  90 CALM      30.01F
INDIANAPOLIS   CLEAR     77  71  82 W3        30.03S
LAFAYETTE      CLEAR     74  74 100 CALM      30.01S
MADISON        CLEAR     79  77  94 CALM      29.99S HX  83
MILWAUKEE      PTCLDY    80  71  74 CALM      29.99R HX  84
$$





USA.gov is the U.S. government's official web portal to all federal, state and local government web resources and services.